Regional Weather Roundup
Issued by NWS Mobile, AL

Home | Current Version | Previous Version | Text Only | Print | Product List | Glossary On
Versions: 1 2 3 4 5 6 7 8 9 10 11 12 13 14 15 16 17 18 19 20 21 22 23 24 25 26 27 28 29 30 31 32 33 34 35 36 37 38 39 40 41 42 43 44 45 46 47 48 49 50
243
ASUS44 KMOB 141212
RWRMOB
REGIONAL WEATHER ROUNDUP
NATIONAL WEATHER SERVICE MOBILE AL
600 AM CST SUN FEB 14 2016

NOTE: "FAIR" INDICATES FEW OR NO CLOUDS BELOW 12,000 FEET WITH NO
      SIGNIFICANT WEATHER AND/OR OBSTRUCTIONS TO VISIBILITY.

  * THESE STATIONS ARE PART OF THE UNIVERSITY OF SOUTH ALABAMA
    MESONET AND ARE NOT UNDER NWS OR FAA QUALITY CONTROL.

ALZ061>064-141300-
COASTAL ALABAMA

CITY           SKY/WX    TMP DP  RH WIND       PRES   REMARKS
MOBILE REG APT CLOUDY    35  23  61 E6        30.28R WCI  30
6HR MIN TEMP:  35; 6HR MAX TEMP:  40;

BROOKLEY FIELD CLOUDY    44  25  47 E16       30.30R
6HR MIN TEMP:  42; 6HR MAX TEMP:  45;

USA CAMPUS*    NOT AVBL
DOG RIVER*     NOT AVBL


CITY           SKY/WX    TMP DP  RH WIND       PRES   REMARKS
MOUNT VERNON*  NOT AVBL
SARALAND*      NOT AVBL
BAY MINETTE*   NOT AVBL
LOXLEY*        NOT AVBL
ROBERTSDALE*   NOT AVBL
FAIRHOPE*      NOT AVBL
ELBERTA*       NOT AVBL
FOLEY*         NOT AVBL
GRAND BAY*     NOT AVBL
DAUPHIN ISLND* NOT AVBL
BON SCOUR NWR* NOT AVBL
GULF SHORES    MOCLDY    38  26  63 NE3       30.27S

$$

ALZ051>060-141300-
INTERIOR SOUTHWEST AND SOUTH CENTRAL ALABAMA

CITY           SKY/WX    TMP DP  RH WIND       PRES   REMARKS
GREENVILLE     CLOUDY    32  14  47 E3        30.31
6HR MIN TEMP:  32; 6HR MAX TEMP:  35;

EVERGREEN      CLOUDY    29  24  82 CALM      30.31R
6HR MIN TEMP:  29; 6HR MAX TEMP:  32;

CASTLEBERRY*   NOT AVBL
ATMORE*        NOT AVBL
DIXIE*         NOT AVBL
ANDALUSIA/OPP  CLEAR     36  18  48 SE7       30.31R
6HR MIN TEMP:  35; 6HR MAX TEMP:  39;

ANDALUSIA*     NOT AVBL
FLORALA APT    CLEAR     33  19  56 E5        30.33R WCI  29
6HR MIN TEMP:  33; 6HR MAX TEMP:  36;

FLORALA*       NOT AVBL

$$

FLZ001>006-141300-
WESTERN FLORIDA PANHANDLE

CITY           SKY/WX    TMP DP  RH WIND       PRES   REMARKS
PENSACOLA      MOCLDY    41  19  41 E8        30.28S
6HR MIN TEMP:  41; 6HR MAX TEMP:  46;

NAS PENSACOLA  PTCLDY    44  26  49 E13       30.27S
6HR MIN TEMP:  42; 6HR MAX TEMP:  45;

MILTON         CLEAR     34  17  50 E6        30.29S WCI  29
6HR MIN TEMP:  33; 6HR MAX TEMP:  37; 6HR PCP: TRACE;

WHTNG S FIELD  CLEAR     37  18  46 E7        30.30R
6HR MIN TEMP:  37; 6HR MAX TEMP:  42;



CITY           SKY/WX    TMP DP  RH WIND       PRES   REMARKS
WALNUT HILL*   NOT AVBL
JAY*           NOT AVBL
DUKE FIELD     CLEAR     30  19  64 NE3       30.28S
CRESTVIEW      CLEAR     28  21  75 NE3       30.32R
6HR MIN TEMP:  28; 6HR MAX TEMP:  34;

VALPARAISO     PTCLDY    39  19  43 E10       30.29R
6HR MIN TEMP:  38; 6HR MAX TEMP:  42;

DESTIN         CLEAR     43  22  43 E9        30.30R
6HR MIN TEMP:  43; 6HR MAX TEMP:  47;


$$

MSZ076-079-141300-
INTERIOR SOUTHEAST MISSISSIPPI

CITY           SKY/WX    TMP DP  RH WIND       PRES   REMARKS
LEAKESVILLE*   NOT AVBL
AGRICOLA*      NOT AVBL

$$

MARINE OBSERVATIONS

STATION/POSITION TIME  TEMP    WIND        PRES    WAVE
                       AIR SEA DIR/SP/G            HT/PER
                 (UTC) (F)     (DEG/KT/KT) (MB)    (FT/S)
PASCAGOULA       1100   44      60/  9/ 14 1024.1F
PETIT BOIS ISLND 1100   51      80/ 15/ 19 1024.4F
GRAND BAY        1045   45      80/ 12     1025.0S
KATRINA CUT      1100   47      80/ 18       N/A
CEDAR POINT      1100   47      90/ 16     1023.7F
E DAUPHIN ISLAND 1200   47      80/ 16/ 18 1024.7R
MIDDLE BAY LIGHT 1100           90/ 20     1023.0F
USCG MOBILE BAY  1100   42 54   80/  9/ 11 1025.5F
STATE DOCKS      1100   41 53              1024.8F
MEAHER PARK      1100   41      90/  8     1025.1F
WEEKS BAY        1045   35                   N/A
FORT MORGAN      1100   45      80/ 16/ 20 1023.7F
12 S ORANGE BCH  1150   55 64   90/ 16/ 19 1024.0F   3/ 5
PENSACOLA BAY    1100   47 51  120/  3/  7 1025.6R

$$

SELECTED LOCATIONS ACROSS THE REGION

CITY           SKY/WX    TMP DP  RH WIND       PRES   REMARKS
NEW ORLEANS    CLOUDY    48  38  68 E3        30.21S
GULFPORT       PTCLDY    40  27  59 E5        30.25R
PASCAGOULA AP  CLOUDY    37  27  67 NE3       30.27R
PASCAGOULA*    NOT AVBL
HATTIESBURG    PTCLDY    31  26  82 CALM      30.27R
LAUREL         CLOUDY    36  18  48 E6        30.26R
MERIDIAN       CLOUDY    36  12  37 E5        30.28R
JACKSON        CLOUDY    41  16  36 SE7       30.23S
MONTGOMERY     CLEAR     30  16  56 E8        30.34R WCI  22
TROY           CLEAR     32  16  51 NE3       30.33R
KINSTON*       NOT AVBL
GENEVA*        NOT AVBL
ASHFORD*       NOT AVBL
DOTHAN         CLEAR     34  14  43 E9        30.34R WCI  27
PANAMA CITY    CLEAR     36  23  59 NE3       30.30R

$$





USA.gov is the U.S. government's official web portal to all federal, state and local government web resources and services.